This is the latest recevied weather packets stored in our database for station/object WK7G. If no packets are shown the sender has not sent any weather packets the latest 10 day(s).
| Time | Temp. | Humidity | Pressure | Rain* | Wind** | Luminosity | Snow |
|---|---|---|---|---|---|---|---|
| 1778273403 | 19.44° C | 31% | 1008.8 hPa | 0 mm | - | 329 W/m² | - |
| 1778273100 | 18.33° C | 36% | 1008.9 hPa | 0 mm | - | 696 W/m² | - |
| 1778272795 | 19.44° C | 35% | 1008.8 hPa | 0 mm | - | 452 W/m² | - |
| 1778272492 | 19.44° C | 33% | 1009.1 hPa | 0 mm | - | 705 W/m² | - |
| 1778272187 | 18.33° C | 33% | 1008.8 hPa | 0 mm | - | 410 W/m² | - |
| 1778271885 | 18.89° C | 33% | 1009.1 hPa | 0 mm | - | 795 W/m² | - |
| 1778271582 | 18.89° C | 34% | 1008.9 hPa | 0 mm | - | 786 W/m² | - |
| 1778271278 | 18.89° C | 34% | 1009.2 hPa | 0 mm | - | 773 W/m² | - |
| 1778270975 | 19.44° C | 34% | 1008.9 hPa | 0 mm | - | 795 W/m² | - |
| 1778270672 | 18.89° C | 33% | 1009.2 hPa | 0 mm | - | 840 W/m² | - |
| 1778270367 | 19.44° C | 36% | 1008.9 hPa | 0 mm | - | 874 W/m² | - |
| 1778270065 | 18.89° C | 36% | 1008.8 hPa | 0 mm | - | 877 W/m² | - |
| 1778269760 | 18.33° C | 35% | 1009.1 hPa | 0 mm | - | 838 W/m² | - |
| 1778269457 | 18.89° C | 34% | 1009.2 hPa | 0 mm | - | 849 W/m² | - |
| 1778269154 | 18.89° C | 36% | 1009.2 hPa | 0 mm | - | 873 W/m² | - |
| 1778268852 | 18.33° C | 37% | 1009.1 hPa | 0 mm | - | 882 W/m² | - |
| 1778268548 | 17.78° C | 35% | 1009.2 hPa | 0 mm | - | 939 W/m² | - |
| 1778268245 | 17.22° C | 37% | 1009.5 hPa | 0 mm | - | 303 W/m² | - |
| 1778267942 | 17.78° C | 36% | 1009.3 hPa | 0 mm | - | 269 W/m² | - |
| 1778267640 | 17.22° C | 41% | 1009.2 hPa | 0 mm | - | - | - |
| 1778267336 | 17.22° C | 37% | 1009.5 hPa | 0 mm | - | 277 W/m² | - |
| 1778267033 | 17.78° C | 41% | 1009.8 hPa | 0 mm | - | 303 W/m² | - |
| 1778266729 | 17.22° C | 37% | 1009.3 hPa | 0 mm | - | 1110 W/m² | - |
| 1778266427 | 16.67° C | 42% | 1009.4 hPa | 0 mm | - | 703 W/m² | - |
| 1778266124 | 16.67° C | 41% | 1009.5 hPa | 0 mm | - | 334 W/m² | - |
* Rain latest hour (hover to see other rain measurements)
** Current wind speed in m/s (hover to see current wind gust speed)